Weather History for KHNR - May, 2014

Change the Weather History Date:

Thursday, May 15, 2014

  Actual Average Record
Temperature  
Mean Temperature 42 °F -  
Max Temperature 50 °F 73 °F 93 °F (2001)
Min Temperature 35 °F 47 °F -99 °F (2000)
Degree Days  
Heating Degree Days 22    
Moisture  
Dew Point 30 °F    
Average Humidity 57    
Maximum Humidity 81    
Minimum Humidity 40    
Precipitation  
Precipitation 0.00 in - - ()
Sea Level Pressure  
Sea Level Pressure 30.19 in    
Wind  
Wind Speed 15 mph (NNW)    
Max Wind Speed 24 mph    
Max Gust Speed 33 mph    
Visibility 10 miles    
Events Rain    
Averages and records for this station are not official NWS values.
T = Trace of Precipitation, MM = Missing Value Source: NWS Daily Summary

Daily Weather History Graph

Daily Weather History Graph

Search for Another Location

Airport or City:

Trip Planner

Search our weather history database for the weather conditions in past years. The results will help you decide how hot, cold, wet, or windy it might be!

Date:

Astronomy

May. 15, 2014 Rise Set
Actual Time 6:01 AM CDT 8:34 PM CDT
Civil Twilight 5:30 AM CDT 9:05 PM CDT
Nautical Twilight 4:50 AM CDT 9:45 PM CDT
Astronomical Twilight 4:06 AM CDT 10:29 PM CDT
Moon 9:42 PM CDT (5/15) 6:49 AM CDT (5/15)
Length of Visible Light 15h 35m
Length of Day
14h 32m
Full, 99% of the Moon is Illuminated
May 15
Full
May 21
Last Quarter
May 28
New
Jun 5
First Quarter
Jun 12
Full

Hourly Weather History & Observations

Time (CDT) Temp. Windchill Dew Point Humidity Pressure Visibility Wind Dir Wind Speed Gust Speed Precip Events Conditions
12:15 AM 48.2 °F - 33.8 °F 58% 30.21 in 10.0 mi North 16.1 mph 26.5 mph N/A Rain Light Rain
12:35 AM 46.4 °F 39.8 °F 32.0 °F 57% 30.20 in 10.0 mi North 16.1 mph 21.9 mph N/A   Mostly Cloudy
12:55 AM 46.4 °F 40.1 °F 32.0 °F 57% 30.21 in 10.0 mi North 15.0 mph 23.0 mph N/A   Overcast
1:15 AM 46.4 °F 40.4 °F 32.0 °F 57% 30.21 in 10.0 mi North 13.8 mph 21.9 mph N/A   Overcast
1:35 AM 46.4 °F 39.8 °F 32.0 °F 57% 30.21 in 10.0 mi North 16.1 mph 21.9 mph N/A   Overcast
1:55 AM 46.4 °F 39.2 °F 30.2 °F 53% 30.20 in 10.0 mi North 18.4 mph - N/A   Overcast
2:15 AM 44.6 °F 37.8 °F 28.4 °F 53% 30.20 in 10.0 mi North 15.0 mph 21.9 mph N/A   Overcast
2:35 AM 44.6 °F 38.4 °F 28.4 °F 53% 30.21 in 10.0 mi North 12.7 mph - N/A   Overcast
2:55 AM 42.8 °F 36.2 °F 28.4 °F 57% 30.20 in 10.0 mi North 12.7 mph 25.3 mph N/A   Scattered Clouds
3:15 AM 42.8 °F 35.8 °F 30.2 °F 61% 30.20 in 10.0 mi North 13.8 mph - N/A   Mostly Cloudy
3:35 AM 42.8 °F 36.6 °F 28.4 °F 57% 30.20 in 10.0 mi North 11.5 mph 18.4 mph N/A   Mostly Cloudy
3:55 AM 41.0 °F 35.2 °F 30.2 °F 65% 30.20 in 10.0 mi North 9.2 mph - N/A   Scattered Clouds
4:15 AM 39.2 °F 33.6 °F 30.2 °F 70% 30.19 in 10.0 mi North 8.1 mph - N/A   Clear
4:35 AM 37.4 °F 32.1 °F 30.2 °F 75% 30.19 in 10.0 mi NNW 6.9 mph - N/A   Clear
4:55 AM 35.6 °F 29.9 °F 30.2 °F 81% 30.19 in 10.0 mi NNW 6.9 mph - N/A   Clear
5:15 AM 37.4 °F 30.8 °F 30.2 °F 75% 30.19 in 10.0 mi NNW 9.2 mph - N/A   Clear
5:35 AM 35.6 °F 28.0 °F 30.2 °F 81% 30.18 in 10.0 mi NNW 10.4 mph - N/A   Clear
5:55 AM 35.6 °F 28.6 °F 30.2 °F 81% 30.18 in 10.0 mi NNW 9.2 mph - N/A   Clear
6:15 AM 35.6 °F 28.0 °F 30.2 °F 81% 30.18 in 10.0 mi NW 10.4 mph - N/A   Clear
6:35 AM 35.6 °F 27.5 °F 30.2 °F 81% 30.19 in 10.0 mi NW 11.5 mph - N/A   Clear
6:55 AM 37.4 °F 29.3 °F 30.2 °F 75% 30.19 in 10.0 mi NW 12.7 mph - N/A   Clear
7:15 AM 37.4 °F 28.9 °F 32.0 °F 81% 30.19 in 10.0 mi NNW 13.8 mph - N/A   Clear
7:35 AM 39.2 °F 30.8 °F 32.0 °F 75% 30.19 in 10.0 mi NNW 15.0 mph - N/A   Clear
7:55 AM 39.2 °F 30.2 °F 32.0 °F 75% 30.19 in 10.0 mi NNW 17.3 mph - N/A   Clear
8:15 AM 41.0 °F 31.9 °F 32.0 °F 70% 30.19 in 10.0 mi NNW 19.6 mph 25.3 mph N/A   Clear
8:35 AM 42.8 °F 33.8 °F 32.0 °F 66% 30.19 in 10.0 mi NNW 21.9 mph - N/A   Clear
8:55 AM 42.8 °F 33.8 °F 32.0 °F 66% 30.20 in 10.0 mi NNW 21.9 mph - N/A   Clear
9:15 AM 42.8 °F 34.0 °F 32.0 °F 66% 30.20 in 10.0 mi NW 20.7 mph 26.5 mph N/A   Clear
9:35 AM 44.6 °F 35.7 °F 32.0 °F 61% 30.20 in 10.0 mi NNW 24.2 mph - N/A   Partly Cloudy
9:55 AM 44.6 °F 36.6 °F 32.0 °F 61% 30.19 in 10.0 mi NNW 19.6 mph 33.4 mph N/A   Scattered Clouds
10:15 AM 44.6 °F 36.4 °F 32.0 °F 61% 30.19 in 10.0 mi NW 20.7 mph 28.8 mph N/A   Mostly Cloudy
10:35 AM 44.6 °F 36.6 °F 32.0 °F 61% 30.20 in 10.0 mi NW 19.6 mph 29.9 mph N/A   Mostly Cloudy
10:55 AM 46.4 °F 38.7 °F 30.2 °F 53% 30.20 in 10.0 mi NNW 20.7 mph 27.6 mph N/A   Overcast
11:15 AM 46.4 °F 39.5 °F 30.2 °F 53% 30.19 in 10.0 mi NNW 17.3 mph 26.5 mph N/A   Overcast
11:35 AM 48.2 °F - 28.4 °F 46% 30.20 in 10.0 mi NNW 16.1 mph 26.5 mph N/A   Overcast
11:55 AM 46.4 °F 38.5 °F 30.2 °F 53% 30.19 in 10.0 mi NW 21.9 mph - N/A   Overcast
12:35 PM 48.2 °F - 28.4 °F 46% 30.19 in 10.0 mi NW 20.7 mph - N/A   Overcast
12:55 PM 48.2 °F - 28.4 °F 46% 30.19 in 10.0 mi NW 19.6 mph 27.6 mph N/A   Overcast
1:15 PM 48.2 °F - 26.6 °F 43% 30.19 in 10.0 mi NW 20.7 mph - N/A   Overcast
2:15 PM 50.0 °F - 26.6 °F 40% 30.18 in 10.0 mi NNW 18.4 mph 24.2 mph N/A   Mostly Cloudy
2:55 PM 50.0 °F - 28.4 °F 43% 30.17 in 10.0 mi NNW 20.7 mph - N/A   Overcast
3:15 PM 50.0 °F - 28.4 °F 43% 30.17 in 10.0 mi NNW 16.1 mph 23.0 mph N/A   Overcast
3:35 PM 50.0 °F - 28.4 °F 43% 30.17 in 10.0 mi NW 17.3 mph 23.0 mph N/A   Mostly Cloudy
3:55 PM 50.0 °F - 26.6 °F 40% 30.17 in 10.0 mi NW 16.1 mph 24.2 mph N/A   Partly Cloudy
4:15 PM 50.0 °F - 26.6 °F 40% 30.16 in 10.0 mi NNW 16.1 mph - N/A   Mostly Cloudy
4:35 PM 50.0 °F - 28.4 °F 43% 30.16 in 10.0 mi NNW 19.6 mph - N/A   Overcast
4:55 PM 50.0 °F - 28.4 °F 43% 30.17 in 10.0 mi NNW 16.1 mph 23.0 mph N/A   Overcast
5:15 PM 50.0 °F - 28.4 °F 43% 30.17 in 10.0 mi NNW 18.4 mph - N/A   Overcast
5:35 PM 50.0 °F - 28.4 °F 43% 30.17 in 10.0 mi NNW 16.1 mph - N/A   Overcast
5:55 PM 50.0 °F - 28.4 °F 43% 30.17 in 10.0 mi NNW 17.3 mph - N/A   Overcast
6:15 PM 48.2 °F - 28.4 °F 46% 30.17 in 10.0 mi North 13.8 mph 20.7 mph N/A   Overcast
6:35 PM 48.2 °F - 26.6 °F 43% 30.17 in 10.0 mi NNW 13.8 mph 20.7 mph N/A   Overcast
6:55 PM 48.2 °F - 26.6 °F 43% 30.17 in 10.0 mi NNW 15.0 mph - N/A   Overcast
7:15 PM 50.0 °F - 26.6 °F 40% 30.17 in 10.0 mi NNW 13.8 mph 20.7 mph N/A   Overcast
7:35 PM 48.2 °F - 28.4 °F 46% 30.17 in 10.0 mi North 12.7 mph 18.4 mph N/A   Overcast
7:55 PM 46.4 °F 41.1 °F 28.4 °F 50% 30.18 in 10.0 mi NNW 11.5 mph 19.6 mph N/A   Mostly Cloudy
8:15 PM 46.4 °F 41.5 °F 28.4 °F 50% 30.18 in 10.0 mi NNW 10.4 mph 16.1 mph N/A   Scattered Clouds
8:55 PM 44.6 °F 38.8 °F 28.4 °F 53% 30.19 in 10.0 mi NNW 11.5 mph - N/A   Overcast
9:15 PM 44.6 °F 39.7 °F 28.4 °F 53% 30.19 in 10.0 mi NNW 9.2 mph - N/A   Overcast
9:35 PM 42.8 °F 37.5 °F 30.2 °F 61% 30.20 in 10.0 mi NNW 9.2 mph - N/A   Mostly Cloudy
9:55 PM 42.8 °F 37.5 °F 30.2 °F 61% 30.20 in 10.0 mi NNW 9.2 mph - N/A   Partly Cloudy
10:15 PM 42.8 °F 37.0 °F 28.4 °F 57% 30.20 in 10.0 mi NNW 10.4 mph - N/A   Scattered Clouds
10:35 PM 42.8 °F 37.0 °F 28.4 °F 57% 30.20 in 10.0 mi North 10.4 mph - N/A   Overcast
10:55 PM 41.0 °F 35.2 °F 28.4 °F 61% 30.20 in 10.0 mi NNW 9.2 mph - N/A   Scattered Clouds
11:15 PM 39.2 °F 33.0 °F 28.4 °F 65% 30.19 in 10.0 mi NNW 9.2 mph - N/A   Clear
11:55 PM 39.2 °F 35.0 °F 30.2 °F 70% 30.18 in 10.0 mi North 5.8 mph - N/A   Clear